User: anonymous   Login
Location: Schommer Observatory
(40.5200°N, 74.4500°W)
Time: 05:40:23
(UTC-04:00)
Language:

Envisat - Orbit

View from above orbital plane
View from above orbital plane
View from above satellite
View from above satellite

Ground track
Ground track

The orbit data is extracted from the following two-line orbital elements,

1 27386U 02009A   17289.81428031 -.00000008  00000-0  10888-4 0  9999
2 27386  98.2184 329.9310 0001222  87.1574 272.9735 14.37905491818551
Epoch (UTC): 16 October 2017 19:32:33
Eccentricity: 0.0001222
inclination: 98.2184°
perigee height: 764 km
apogee height: 766 km
right ascension of ascending node: 329.9310°
argument of perigee: 87.1574°
revolutions per day: 14.37905491
mean anomaly at epoch: 272.9735°
orbit number at epoch: 81855

The dashed part of the orbit path shows where the satellite is in the earth's shadow,  

DLR